Williamsport, PA

8:12 PM EST on December 06, 2019 (GMT -0500)
Williamsport Rgnl

Weather History for KIPT - November, 2019

Change the Weather History Date:

Saturday, November 16, 2019

  Actual Average Record
Temperature  
Mean Temperature 33 °F 42 °F  
Max Temperature 42 °F 50 °F 77 °F (1928)
Min Temperature 24 °F 33 °F 11 °F (1933)
Degree Days  
Heating Degree Days 32 23  
Month to date heating degree days 441 334  
Since 1 July heating degree days 793 877  
Cooling Degree Days 0 0  
Month to date cooling degree days 0 0  
Year to date cooling degree days 870 702  
Moisture  
Dew Point 10 °F    
Average Humidity 41    
Maximum Humidity 62    
Minimum Humidity 16    
Precipitation  
Precipitation 0.00 in 0.13 in 2.70 in (1926)
Month to date precipitation 0.52 1.86  
Year to date precipitation 44.57 36.47  
Sea Level Pressure  
Sea Level Pressure 30.42 in    
Wind  
Wind Speed 6 mph ()    
Max Wind Speed 15 mph    
Max Gust Speed 20 mph    
Visibility 10.0 miles    
Events      
T = Trace of Precipitation, MM = Missing Value Source: Averaged Metar Reports

Daily Weather History Graph

Daily Weather History Graph

Search for Another Location

Airport or City:

Astronomy

Nov. 16, 2019 Rise Set
Actual Time 6:56 AM EST 4:47 PM EST
Civil Twilight 6:26 AM EST 5:17 PM EST
Nautical Twilight 5:53 AM EST 5:50 PM EST
Astronomical Twilight 5:20 AM EST 6:23 PM EST
Moon 8:17 PM EST (11/16) 10:49 AM EST (11/16)
Length of Visible Light 10h 50m
Length of Day
9h 51m
Waning Gibbous, 82% of the Moon is Illuminated
Nov 16
Waning Gibbous
Nov 19
Last Quarter
Nov 26
New
Dec 4
First Quarter
Dec 12
Full

Hourly Weather History & Observations

Time (EST) Temp. Windchill Dew Point Humidity Pressure Visibility Wind Dir Wind Speed Gust Speed Precip Events Conditions
12:54 AM 37.9 °F 32.1 °F 23.0 °F 55% 30.32 in 10.0 mi NNW 8.1 mph - N/A   Overcast
1:54 AM 37.0 °F 31.6 °F 19.9 °F 50% 30.33 in 10.0 mi NW 6.9 mph - N/A   Overcast
2:54 AM 36.0 °F 28.0 °F 21.9 °F 57% 30.34 in 10.0 mi North 11.5 mph - N/A   Overcast
3:54 AM 35.1 °F 26.4 °F 19.0 °F 52% 30.35 in 10.0 mi North 12.7 mph 19.6 mph N/A   Overcast
4:54 AM 32.0 °F 23.6 °F 16.0 °F 52% 30.38 in 10.0 mi NNE 10.4 mph - N/A   Scattered Clouds
5:54 AM 30.0 °F 24.1 °F 12.0 °F 47% 30.41 in 10.0 mi North 5.8 mph - N/A   Clear
6:54 AM 28.9 °F 23.9 °F 12.0 °F 49% 30.46 in 10.0 mi NNE 4.6 mph - N/A   Clear
7:54 AM 30.0 °F 23.2 °F 10.9 °F 45% 30.49 in 10.0 mi North 6.9 mph - N/A   Clear
8:54 AM 32.0 °F 25.6 °F 9.0 °F 38% 30.51 in 10.0 mi North 6.9 mph - N/A   Clear
9:54 AM 34.0 °F 31.0 °F 6.1 °F 31% 30.51 in 10.0 mi Variable 3.5 mph - N/A   Clear
10:54 AM 36.0 °F 31.1 °F 1.9 °F 24% 30.49 in 10.0 mi NNE 5.8 mph - N/A   Clear
11:54 AM 39.0 °F 33.4 °F -0.9 °F 19% 30.45 in 10.0 mi ESE 8.1 mph - N/A   Clear
12:54 PM 42.1 °F 35.7 °F -0.9 °F 17% 30.43 in 10.0 mi NE 11.5 mph - N/A   Clear
1:54 PM 42.1 °F 35.7 °F -0.0 °F 17% 30.41 in 10.0 mi ENE 11.5 mph - N/A   Clear
2:54 PM 41.0 °F 35.2 °F -0.0 °F 18% 30.40 in 10.0 mi ENE 9.2 mph - N/A   Clear
3:54 PM 39.9 °F 35.1 °F 1.9 °F 20% 30.41 in 10.0 mi NNE 6.9 mph - N/A   Clear
4:54 PM 36.0 °F 32.1 °F 3.0 °F 25% 30.42 in 10.0 mi East 4.6 mph - N/A   Clear
5:54 PM 34.0 °F 28.8 °F 7.0 °F 32% 30.44 in 10.0 mi East 5.8 mph - N/A   Clear
6:54 PM 30.0 °F - 10.9 °F 45% 30.45 in 10.0 mi Calm Calm - N/A   Clear
7:54 PM 30.0 °F - 12.0 °F 47% 30.45 in 10.0 mi Calm Calm - N/A   Clear
8:54 PM 27.0 °F - 10.9 °F 51% 30.44 in 10.0 mi Calm Calm - N/A   Clear
9:54 PM 26.1 °F - 14.0 °F 60% 30.42 in 10.0 mi Calm Calm - N/A   Clear
10:54 PM 25.0 °F - 12.9 °F 60% 30.42 in 10.0 mi Calm Calm - N/A   Clear
11:54 PM 24.1 °F - 12.9 °F 62% 30.42 in 10.0 mi Calm Calm - N/A   Clear